Location: L�Ave Maria
(50.7161°N, 1.5911°E)
Time: 23:01:06
(UTC+00:00)

Cosmos 1048 Rocket - Pass Details

Date: 10 July 2020
Orbit: 744 x 791 km, 74.0° (Epoch: 14 August)

Event Time Altitude Azimuth Distance (km) Brightness Sun altitude
Exits shadow 23:36:08 26° 201° (SSW) 1,496 5.0 -17.0°
Maximum altitude 23:39:13 87° 112° (ESE) 778 4.0 -17.1°
Drops below altitude 10° 23:44:28 10° 25° (NNE) 2,308 7.4 -17.1°
Sets 23:46:50 0° 25° (NNE) 3,231 8.3 -17.2°
